Date String (YYYY-MM-DD hh:mm:ss) UTC,Instrument flags,absolute air pressure of the measurement (hPa),sample flow rate (lpm),inlet stack bypass flow (lpm),air temperature of the measurement (°C),ambient temperature measured by the external sensor (°C),aerosol sample conditioner tube jacket temperature (°C),OPC LED temperature (°C),internal box temperature (°C),relative humidity of the measurement (%),span deviation,mass concentration of particles derived from Lorenz-Mie calculation of OPC scattering (μg/m³),mass concentration of particles derived from Lorenz-Mie calculation of OPC scattering (μg/m³),mass concentration of particles derived from Lorenz-Mie calculation of OPC scattering (μg/m³)
DateTimeUTC,F1_M11,P_M11,Q1_M11,Q2_M11,T1_M11,T2_M11,T3_M11,T4_M11,T5_M11,U1_M11,ZSPAN_M11,X0_M11,X2_M11,X1_M11
2023-08-07 20:00:00,SystemResetWarning,0832.5,5.01,000.00,029.1,025.8,000.0,037.3,030.6,19.4,0000.0,0009.16,0003.23,0002.26
2023-08-07 20:01:00,SystemResetWarning,0832.5,5.01,000.00,029.1,026.0,000.0,037.3,030.5,19.1,0000.0,0008.75,0003.20,0002.24
2023-08-07 20:02:00,SystemResetWarning,0832.5,5.00,000.00,029.0,026.2,000.0,037.4,030.5,19.4,0000.0,0009.14,0003.21,0002.23
2023-08-07 20:03:00,SystemResetWarning,0832.5,5.00,000.00,029.0,026.6,000.0,037.4,030.6,19.9,0000.0,0009.06,0003.21,0002.22
2023-08-07 20:04:00,SystemResetWarning,0832.5,4.99,000.00,029.0,026.9,000.0,037.5,030.7,20.5,0000.0,0008.65,0003.17,0002.21
2023-08-07 20:05:00,SystemResetWarning,0832.5,4.99,000.00,029.1,027.2,000.0,037.5,030.8,20.8,0000.0,0008.88,0003.21,0002.20
2023-08-07 20:06:00,SystemResetWarning,0832.6,5.00,000.00,029.1,027.5,000.0,037.5,030.9,20.9,0000.0,0008.21,0003.17,0002.20
2023-08-07 20:07:00,SystemResetWarning,0832.5,5.01,000.00,029.2,027.7,000.0,037.5,030.9,20.8,0000.0,0008.15,0003.14,0002.20
2023-08-07 20:08:00,SystemResetWarning,0832.5,5.00,000.00,029.2,027.9,000.0,037.6,031.0,20.8,0000.0,0008.12,0003.12,0002.19
2023-08-07 20:09:00,SystemResetWarning,0832.5,4.98,000.00,029.2,026.8,000.0,037.5,030.8,20.9,0000.0,0008.32,0003.19,0002.21
2023-08-07 20:10:00,SystemResetWarning,0832.5,5.01,000.00,029.1,025.1,000.0,037.4,030.5,20.7,0000.0,0008.26,0003.20,0002.21
2023-08-07 20:11:00,SystemResetWarning,0832.5,5.01,000.00,029.1,024.9,000.0,037.3,030.4,20.4,0000.0,0008.26,0003.20,0002.22
2023-08-07 20:12:00,SystemResetWarning,0832.4,4.99,000.00,029.0,025.2,000.0,037.3,030.3,20.9,0000.0,0008.67,0003.22,0002.20
2023-08-07 20:13:00,SystemResetWarning,0832.3,4.99,000.00,028.9,025.6,000.0,037.3,030.3,20.5,0000.0,0008.39,0003.22,0002.19
2023-08-07 20:14:00,SystemResetWarning,0832.3,5.00,000.00,028.9,026.0,000.0,037.4,030.4,21.1,0000.0,0007.94,0003.24,0002.20
2023-08-07 20:15:00,SystemResetWarning,0832.3,5.01,000.00,028.9,026.4,000.0,037.4,030.5,20.6,0000.0,0007.43,0003.27,0002.22
2023-08-07 20:16:00,SystemResetWarning,0832.3,5.00,000.00,029.0,026.8,000.0,037.4,030.6,20.1,0000.0,0007.10,0003.26,0002.23
2023-08-07 20:17:00,SystemResetWarning,0832.3,5.00,000.00,029.0,027.1,000.0,037.4,030.7,20.0,0000.0,0006.80,0003.26,0002.24
2023-08-07 20:18:00,SystemResetWarning,0832.3,5.00,000.00,029.0,027.4,000.0,037.5,030.8,20.2,0000.0,0006.88,0003.25,0002.26
2023-08-07 20:19:00,SystemResetWarning,0832.3,5.00,000.00,029.1,027.6,000.0,037.5,030.8,20.3,0000.0,0007.68,0003.26,0002.28
2023-08-07 20:20:00,SystemResetWarning,0832.3,5.00,000.00,029.1,027.8,000.0,037.5,030.9,20.2,0000.0,0007.59,0003.25,0002.29
2023-08-07 20:21:00,SystemResetWarning,0832.3,5.00,000.00,029.2,027.9,000.0,037.5,031.0,20.8,0000.0,0007.58,0003.23,0002.31
2023-08-07 20:22:00,SystemResetWarning,0832.3,4.99,000.00,029.2,026.4,000.0,037.4,030.7,20.8,0000.0,0007.75,0003.25,0002.32
2023-08-07 20:23:00,SystemResetWarning,0832.3,5.01,000.00,029.1,024.9,000.0,037.3,030.4,20.6,0000.0,0007.53,0003.30,0002.37
2023-08-07 20:24:00,SystemResetWarning,0832.2,5.02,000.00,029.0,024.9,000.0,037.2,030.3,21.2,0000.0,0007.53,0003.32,0002.41
2023-08-07 20:25:00,SystemResetWarning,0832.2,5.00,000.00,028.9,025.2,000.0,037.3,030.2,20.9,0000.0,0007.52,0003.33,0002.43
2023-08-07 20:26:00,SystemResetWarning,0832.2,5.00,000.00,028.9,025.6,000.0,037.3,030.3,20.7,0000.0,0007.53,0003.32,0002.44
2023-08-07 20:27:00,SystemResetWarning,0832.3,5.01,000.00,028.9,026.1,000.0,037.3,030.4,20.5,0000.0,0007.56,0003.34,0002.44
2023-08-07 20:28:00,SystemResetWarning,0832.3,5.00,000.00,028.9,026.5,000.0,037.4,030.5,20.6,0000.0,0007.60,0003.34,0002.42
2023-08-07 20:29:00,SystemResetWarning,0832.3,5.00,000.00,028.9,026.8,000.0,037.4,030.6,20.5,0000.0,0007.68,0003.37,0002.41
2023-08-07 20:30:00,SystemResetWarning,0832.2,5.00,000.00,029.0,027.2,000.0,037.4,030.7,21.3,0000.0,0006.61,0003.35,0002.39
2023-08-07 20:31:00,SystemResetWarning,0832.2,5.00,000.00,029.0,027.4,000.0,037.4,030.8,20.7,0000.0,0006.69,0003.32,0002.36
2023-08-07 20:32:00,SystemResetWarning,0832.2,4.99,000.00,029.0,027.6,000.0,037.4,030.8,20.1,0000.0,0006.88,0003.27,0002.34
2023-08-07 20:33:00,SystemResetWarning,0832.2,5.01,000.00,029.1,027.8,000.0,037.5,030.9,19.9,0000.0,0007.35,0003.25,0002.34
2023-08-07 20:34:00,SystemResetWarning,0832.1,4.99,000.00,029.1,028.0,000.0,037.5,031.0,20.2,0000.0,0007.93,0003.17,0002.31
2023-08-07 20:35:00,SystemResetWarning,0832.1,4.98,000.00,029.2,027.1,000.0,037.4,030.7,20.7,0000.0,0008.14,0003.15,0002.28
2023-08-07 20:36:00,SystemResetWarning,0832.0,5.00,000.00,029.1,025.3,000.0,037.3,030.4,20.6,0000.0,0008.05,0003.11,0002.25
2023-08-07 20:37:00,SystemResetWarning,0831.9,5.00,000.00,029.0,024.9,000.0,037.2,030.3,20.3,0000.0,0008.13,0003.12,0002.25
2023-08-07 20:38:00,SystemResetWarning,0831.9,5.01,000.00,029.0,025.2,000.0,037.2,030.3,20.7,0000.0,0008.29,0003.14,0002.25
2023-08-07 20:39:00,SystemResetWarning,0831.8,5.00,000.00,028.9,025.6,000.0,037.3,030.3,21.5,0000.0,0008.39,0003.17,0002.27
2023-08-07 20:40:00,SystemResetWarning,0831.9,5.00,000.00,028.9,026.0,000.0,037.3,030.4,20.8,0000.0,0008.64,0003.17,0002.27
2023-08-07 20:41:00,SystemResetWarning,0831.9,5.00,000.00,028.9,026.4,000.0,037.3,030.5,22.0,0000.0,0008.99,0003.17,0002.27
2023-08-07 20:42:00,SystemResetWarning,0831.9,5.00,000.00,028.9,026.8,000.0,037.4,030.6,21.8,0000.0,0009.24,0003.20,0002.29
2023-08-07 20:43:00,SystemResetWarning,0831.9,5.01,000.00,029.0,027.1,000.0,037.4,030.7,20.9,0000.0,0009.27,0003.23,0002.30
2023-08-07 20:44:00,SystemResetWarning,0831.8,5.01,000.00,029.0,027.4,000.0,037.4,030.8,20.3,0000.0,0009.08,0003.24,0002.30
2023-08-07 20:45:00,SystemResetWarning,0831.8,5.00,000.00,029.0,027.6,000.0,037.4,030.8,20.1,0000.0,0008.86,0003.26,0002.30
2023-08-07 20:46:00,SystemResetWarning,0831.9,5.00,000.00,029.1,027.8,000.0,037.5,030.9,20.8,0000.0,0008.80,0003.23,0002.29
2023-08-07 20:47:00,SystemResetWarning,0831.9,5.00,000.00,029.1,027.9,000.0,037.5,031.0,20.9,0000.0,0009.07,0003.24,0002.30
2023-08-07 20:48:00,SystemResetWarning,0831.9,4.97,000.00,029.2,026.7,000.0,037.4,030.8,20.5,0000.0,0009.02,0003.23,0002.31
2023-08-07 20:49:00,SystemResetWarning,0831.9,5.01,000.00,029.1,025.8,000.0,037.3,030.6,20.4,0000.0,0008.90,0003.22,0002.31
2023-08-07 20:50:00,SystemResetWarning,0832.0,5.01,000.00,029.1,025.9,000.0,037.3,030.5,20.4,0000.0,0008.91,0003.19,0002.31
2023-08-07 20:51:00,SystemResetWarning,0831.8,5.00,000.00,029.0,026.2,000.0,037.3,030.5,20.4,0000.0,0009.18,0003.18,0002.31
2023-08-07 20:52:00,SystemResetWarning,0831.7,5.00,000.00,029.0,026.5,000.0,037.4,030.6,20.5,0000.0,0008.87,0003.18,0002.33
2023-08-07 20:53:00,SystemResetWarning,0831.7,5.00,000.00,029.0,026.9,000.0,037.4,030.7,20.2,0000.0,0008.53,0003.16,0002.34
2023-08-07 20:54:00,SystemResetWarning,0831.7,4.99,000.00,029.1,027.2,000.0,037.5,030.7,20.6,0000.0,0008.90,0003.17,0002.33
2023-08-07 20:55:00,SystemResetWarning,0831.7,4.99,000.00,029.1,027.5,000.0,037.5,030.8,22.2,0000.0,0009.80,0003.21,0002.32
2023-08-07 20:56:00,SystemResetWarning,0831.7,5.00,000.00,029.1,027.7,000.0,037.5,030.9,21.4,0000.0,0009.75,0003.22,0002.33
2023-08-07 20:57:00,SystemResetWarning,0831.8,5.00,000.00,029.2,027.5,000.0,037.5,030.9,20.0,0000.0,0009.10,0003.25,0002.34
2023-08-07 20:58:00,SystemResetWarning,0831.7,5.00,000.00,029.2,025.8,000.0,037.4,030.6,19.9,0000.0,0008.97,0003.32,0002.36
2023-08-07 20:59:00,SystemResetWarning,0831.7,5.01,000.00,029.1,024.7,000.0,037.3,030.4,20.0,0000.0,0009.19,0003.35,0002.37
